Home   Weather   San Salvador   Past weeks

Flag for El Salvador Past Weather in San Salvador, El Salvador — Yesterday and Last 2 Weeks

Now
72 °F

Fog.


Feels Like: 67 °F
Forecast: 69 / 85 °F
Wind: 2 mph from North

Location: San Salvador / Ilopango

Current Time: Apr 25, 2017 at 6:34:30 am

Latest Report: Apr 25, 2017 at 5:50 am


Visibility: 1 mi

Pressure: 29.95 "Hg (27.72 "Hg at 667m altitude)

Humidity: 94%

Dew Point: 70 °F

Location of San SalvadorLocation

Past Weather in San Salvador — Graph

°F

San Salvador Temperature Yesterday

Maximum temperature yesterday: 90 °F (at 11:50 am)
Minimum temperature yesterday: 72 °F (at 5:50 am)
Average temperature yesterday: 80 °F

High & Low Weather Summary for the Past Weeks

 TemperatureHumidityPressure
High93 °F (Apr 11, 2:50 pm)100% (Apr 24, 2:50 pm)30.04 "Hg (Apr 24, 2:50 pm)
Low66 °F (Apr 22, 5:50 am)24% (Apr 13, 12:50 pm)29.86 "Hg (Apr 12, 3:50 pm)
Average80 °F63%29.96 "Hg
* Reported Apr 9 11:50 pm — Apr 24 11:50 pm, San Salvador, Weather by CustomWeather, © 2017

Note: Actual official high and low records may vary slightly from our data, if they occured in-between our weather recording intervals... More about our weather records

Advertising

San Salvador Weather History for the Previous 24 Hours

Scroll right to see more
 ConditionsComfort  
Time TempWeatherWind HumidityBarometerVisibility
11:50 pm
Mon, Apr 24
75 °FPassing clouds.7 mph83%29.98 "HgN/A
10:50 pm77 °FPassing clouds.5 mph79%29.98 "HgN/A
9:50 pm77 °FPassing clouds.3 mph79%29.95 "HgN/A
8:50 pm77 °FPassing clouds.No wind79%29.95 "HgN/A
7:50 pm77 °FPassing clouds.3 mph79%29.92 "Hg5 mi
6:50 pm77 °FHaze.3 mph83%29.92 "Hg3 mi
5:50 pm81 °FHaze.8 mph74%29.92 "Hg5 mi
4:50 pm81 °FPassing clouds.8 mph74%29.92 "Hg4 mi
3:50 pm84 °FScattered clouds.9 mph66%29.92 "Hg4 mi
2:50 pm86 °FPassing clouds.8 mph100%29.92 "Hg5 mi
1:50 pm90 °FScattered clouds.10 mph55%29.92 "Hg5 mi
12:50 pm90 °FPassing clouds.9 mph55%29.92 "HgN/A
11:50 am90 °FPassing clouds.6 mph55%29.95 "HgN/A
10:50 am84 °FPassing clouds.3 mph62%29.95 "HgN/A
9:50 am82 °FClear.7 mph66%29.98 "Hg5 mi
8:50 am81 °FFog.8 mph66%29.98 "HgN/A
7:50 am75 °FFog.8 mph83%29.95 "HgN/A
6:50 am73 °FFog.7 mph89%29.95 "HgN/A
Weather by CustomWeather, © 2017

See weather overviewHow to use our weather pages